Flag for U.S.A. Weather past 2 weeks in San Bernardino, California, U.S.A.

Now
68 °F

Clear.


Feels Like: 68 °F
Forecast: 51 / 80 °F
Wind: No wind

Location: Riverside Municipal Airport

Current Time: Mar 30, 2015 at 10:31:14 PM

Latest Report: Mar 30, 2015 at 9:53 PM


Visibility: 10 mi

Pressure: 29.96 "Hg

Humidity: 57%

Dew point: 52 °F

Location of San BernardinoLocation

Historic Weather in San Bernardino — Graph

°F

San Bernardino temperature yesterday

Maximum temperature yesterday: 87 °F (at 1:53 PM)
Minimum temperature yesterday: 56 °F (at 5:53 AM)
Average temperature yesterday: 71 °F

Past Weeks' High & Low Weather Summary

 TemperatureHumidityPressure
High93 °F (Mar 26, 4:53 PM)96% (Mar 20, 7:53 AM)30.18 "Hg (Mar 20, 7:53 AM)
Low51 °F (Mar 24, 6:53 AM)7% (Mar 16, 1:53 PM)29.83 "Hg (Mar 16, 3:53 PM)
Average69 °F48%29.99 "Hg
* Reported Mar 15 8:53 PM — Mar 30 8:53 PM, San Bernardino, Weather by CustomWeather, © 2015

Note: Actual official high and low records may vary slightly from our data, if they occured in-between our weather recording intervals... More about our weather records

Advertising

San Bernardino weather history for previous 24 hours

 ConditionsComfort  
Time TempWeatherWind HumidityBarometerVisibility
8:53 PM
Mon, Mar 30
69 °FClear.No wind57%29.95 "Hg10 mi
7:53 PM71 °FSunny.5 mph49%29.93 "Hg10 mi
6:53 PM74 °FSunny.7 mph45%29.90 "Hg10 mi
5:53 PM79 °FSunny.13 mph41%29.89 "Hg10 mi
4:53 PM83 °FSunny.12 mph22%29.88 "Hg10 mi
3:53 PM85 °FSunny.13 mph20%29.89 "Hg10 mi
2:53 PM85 °FSunny.14 mph21%29.91 "Hg10 mi
1:53 PM86 °FSunny.7 mph27%29.93 "Hg10 mi
12:53 PM83 °FSunny.6 mph22%29.95 "Hg10 mi
11:53 AM78 °FSunny.5 mph29%29.97 "Hg10 mi
10:53 AM73 °FSunny.5 mph38%29.98 "Hg10 mi
9:53 AM67 °FSunny.No wind47%29.99 "Hg10 mi
8:53 AM63 °FSunny.3 mph52%29.99 "Hg10 mi
7:53 AM60 °FSunny.No wind58%29.98 "Hg10 mi
6:53 AM56 °FClear.No wind70%29.97 "Hg10 mi
5:53 AM56 °FClear.No wind75%29.96 "Hg10 mi
4:53 AM57 °FClear.5 mph74%29.95 "Hg10 mi
3:53 AM58 °FClear.3 mph75%29.95 "Hg10 mi
2:53 AM59 °FClear.No wind67%29.96 "Hg10 mi
1:53 AM61 °FClear.No wind65%29.98 "Hg10 mi
12:53 AM63 °FClear.No wind68%29.99 "Hg10 mi
11:53 PM
Sun, Mar 29
64 °FClear.No wind65%29.99 "Hg10 mi
10:53 PM67 °FClear.3 mph55%29.99 "Hg10 mi
Weather by CustomWeather, © 2015

See weather overviewHow to use our weather pages